sat.trackr.live / text

‹ back to catalog

STARLINK-32545

NORAD 62135 · 2024-222X

PAYLOAD ACTIVE UNKNOWN

§ Identity

Operator
Country
US
Launch date
2024-11-27
Launch site
AFETR
Launch vehicle
Mass (kg)
RCS (m²)

Purposes: comms

External: N2YO · Heavens-Above · Gunter

§ Orbital elements

Epoch: 2026-09-21T21:49:59.203200Z

Period
94.27 min
Inclination
43.0020°
Eccentricity
0.0001332
Mean motion
15.27580061 rev/d
Perigee alt
482.1 km
Apogee alt
484.0 km
Semi-major
6,861.2 km
B*
3.7158e-4
RAAN
108.4290°
Arg perigee
294.0933°
Mean anomaly
65.9779°
Rev number
10,280

§ Raw data

STARLINK-325451 62135U 24222X   26264.90971300  .00009977  00000+0  37158-3 0  99962 62135  43.0020 108.4290 0001332 294.0933  65.9779 15.27580061102800

JSON: /api/v1/satellites/62135 · /tle

For live sub-satellite position, see the globe view (requires WebGL).

§ Visibility from observer

Set your observer location to see the next 7 days of passes ≥ 10°. The values pass through the URL so the page stays shareable.

No JS? Fill the form by hand. The geolocation button needs JavaScript.